GW3497 Weather Reports


time (UTC)temp
C
wind
direction
speed
KPH
gust
KPH
rain 1hr
cm
rain 24hr
cm
rain mn
cm
humidity
%
barometer
mb
20260904054537 19 0.0 0.0 0.00 0.00 0.00 87 1009.2
20260904054048 19 0.0 0.0 0.00 0.00 0.00 87 1009.2
20260904053830 19 0.0 0.0 0.00 0.00 0.00 87 1009.2
20260904053404 19 0.0 0.0 0.00 0.00 0.00 87 1009.2
20260904052534 19 0.0 0.0 0.00 0.00 0.00 87 1009.2
20260904052048 19 0.0 0.0 0.00 0.00 0.00 87 1009.3
20260904051534 19 0.0 0.0 0.00 0.00 0.00 88 1009.5
20260904051044 19 0.0 0.0 0.00 0.00 0.00 87 1009.5
20260904050829 19 0.0 0.0 0.00 0.00 0.00 88 1009.4
20260904050107 19 0.0 0.0 0.00 0.00 0.00 88 1009.5
20260904045526 19 0.0 0.0 0.00 0.00 0.00 89 1009.5
20260904045032 19 0.0 0.0 0.00 0.00 0.00 89 1009.6
20260904044527 19 0.0 0.0 0.00 0.00 0.00 89 1009.6
20260904044037 19 0.0 0.0 0.00 0.00 0.00 89 1009.6
20260904043815 19 0.0 0.0 0.00 0.00 0.00 89 1009.6
20260904043158 19 0.0 0.0 0.00 0.00 0.00 89 1009.9
20260904043131 19 0.0 0.0 0.00 0.00 0.00 89 1009.8
20260904042036 19 0.0 0.0 0.00 0.00 0.00 88 1010.0
20260904041524 19 0.0 0.0 0.00 0.00 0.00 88 1009.9
20260904041033 19 0.0 0.0 0.00 0.00 0.00 88 1010.1
20260904040524 19 0.0 0.0 0.00 0.00 0.00 88 1010.1
20260904040101 19 0.0 0.0 0.00 0.00 0.00 87 1010.1
20260904035525 19 0.0 0.0 0.00 0.00 0.00 87 1010.2
20260904035038 19 0.0 0.0 0.00 0.00 0.00 87 1010.2
20260904034529 19 0.0 0.0 0.00 0.00 0.00 87 1010.3
20260904034036 19 250 16.1 24.1 0.00 0.00 0.00 87 1010.3
20260904033525 19 250 16.1 30.6 0.00 0.00 0.00 87 1010.2
20260904033046 19 235 14.5 30.6 0.00 0.00 0.00 87 1010.3
20260904032524 19 227 14.5 32.2 0.00 0.00 0.00 87 1010.5
20260904032039 19 221 14.5 32.2 0.00 0.00 0.00 87 1010.5
20260904031527 19 245 17.7 27.4 0.00 0.00 0.00 87 1010.5
20260904031038 19 243 16.1 27.4 0.00 0.00 0.00 86 1010.5
20260904030521 19 204 16.1 29.0 0.00 0.00 0.00 86 1010.5
20260904030105 19 264 14.5 37.0 0.00 0.00 0.00 86 1010.7
20260904025810 19 257 20.9 37.0 0.00 0.00 0.00 86 1010.7
20260904025035 19 233 16.1 30.6 0.00 0.00 0.00 86 1010.9
20260904024521 19 257 17.7 30.6 0.00 0.00 0.00 86 1011.0
20260904024033 19 234 12.9 24.1 0.00 0.00 0.00 86 1011.2
20260904023519 19 206 12.9 27.4 0.00 0.00 0.00 86 1011.1
20260904023041 19 234 12.9 27.4 0.00 0.00 0.00 86 1011.1
20260904022806 19 233 11.3 29.0 0.00 0.00 0.00 86 1011.2
20260904022030 19 237 11.3 30.6 0.00 0.00 0.00 86 1011.3
20260904021519 19 217 17.7 32.2 0.00 0.00 0.00 86 1011.3
20260904021320 19 192 14.5 32.2 0.00 0.00 0.00 86 1011.1
20260904020517 19 224 16.1 27.4 0.00 0.00 0.00 86 1011.4
20260904020406 19 230 16.1 27.4 0.00 0.00 0.00 86 1011.5
20260904015518 18 237 16.1 37.0 0.00 0.00 0.00 86 1011.5
20260904015318 18 258 16.1 37.0 0.00 0.00 0.00 86 1011.6
20260904014522 18 230 16.1 30.6 0.00 0.00 0.00 86 1011.3
20260904014030 18 188 14.5 30.6 0.00 0.00 0.00 86 1011.6
20260904013807 18 172 12.9 27.4 0.00 0.00 0.00 86 1011.8
20260904013329 18 219 14.5 27.4 0.00 0.00 0.00 86 1011.8
20260904012518 18 219 14.5 24.1 0.00 0.00 0.00 86 1011.9
20260904012029 18 235 9.7 24.1 0.00 0.00 0.00 86 1012.0
20260904011808 18 259 11.3 29.0 0.00 0.00 0.00 86 1012.0
20260904011030 18 237 14.5 33.8 0.00 0.00 0.00 86 1012.0
20260904010516 18 233 16.1 38.6 0.00 0.00 0.00 86 1012.1
20260904010050 18 272 19.3 38.6 0.00 0.00 0.00 87 1012.2
20260904005514 18 240 9.7 30.6 0.00 0.00 0.00 87 1012.1
20260904005316 18 257 17.7 30.6 0.00 0.00 0.00 87 1012.2
20260904004520 18 238 12.9 30.6 0.00 0.00 0.00 87 1012.5
20260904004026 18 224 12.9 30.6 0.00 0.00 0.00 87 1012.4
20260904003513 18 266 16.1 30.6 0.00 0.00 0.00 87 1012.5
20260904003227 18 220 14.5 37.0 0.00 0.00 0.00 87 1012.4
20260904003112 18 219 16.1 30.6 0.00 0.00 0.00 87 1012.3
20260904002033 18 228 17.7 37.0 0.00 0.00 0.00 87 1012.5
20260904001522 18 227 14.5 24.1 0.00 0.00 0.00 87 1012.8
20260904001027 18 265 11.3 27.4 0.00 0.00 0.00 87 1012.9
20260904000512 18 235 16.1 33.8 0.00 0.00 0.00 87 1013.0
20260904000044 18 220 19.3 33.8 0.00 0.00 0.00 87 1012.9
20260903235511 18 224 12.9 32.2 0.00 0.00 0.00 87 1013.2
20260903235025 18 219 14.5 27.4 0.00 0.00 0.00 86 1013.3
20260903234516 18 224 14.5 27.4 0.00 0.00 0.00 86 1013.3
20260903234030 18 251 14.5 25.7 0.00 0.00 0.00 86 1013.4
20260903233512 18 214 12.9 25.7 0.00 0.00 0.00 85 1013.3
20260903233035 18 268 9.7 24.1 0.00 0.00 0.00 85 1013.4
20260903232512 18 245 9.7 24.1 0.00 0.00 0.00 84 1013.4
20260903232024 18 282 12.9 22.5 0.00 0.00 0.00 84 1013.6
20260903231804 18 237 11.3 24.1 0.00 0.00 0.00 84 1013.7
20260903231026 18 233 12.9 24.1 0.00 0.00 0.00 83 1013.6
20260903230512 18 247 11.3 25.7 0.00 0.00 0.00 83 1013.8
20260903230050 18 251 12.9 25.7 0.00 0.00 0.00 84 1014.0
20260903225517 18 255 11.3 20.9 0.00 0.00 0.00 84 1014.2
20260903225038 18 231 8.0 17.7 0.00 0.00 0.00 84 1014.3
20260903224525 18 257 8.0 17.7 0.00 0.00 0.00 83 1014.2
20260903224032 18 251 9.7 17.7 0.00 0.00 0.00 83 1014.3
20260903223518 18 223 9.7 17.7 0.00 0.00 0.00 82 1014.3
20260903223241 18 257 9.7 20.9 0.00 0.00 0.00 82 1014.4
20260903222932 18 251 11.3 24.1 0.00 0.00 0.00 82 1014.5
20260903221500 19 254 9.7 22.5 0.00 0.00 0.00 82 1014.5
20260903220959 19 248 14.5 22.5 0.00 0.00 0.00 82 1014.4
20260903220456 19 250 12.9 22.5 0.00 0.00 0.00 82 1014.5
20260903215958 19 248 12.9 27.4 0.00 0.00 0.00 82 1014.6
20260903215457 19 272 11.3 27.4 0.00 0.00 0.00 83 1014.5
20260903214959 19 255 11.3 27.4 0.00 0.00 0.00 83 1014.5
20260903214457 19 254 12.9 27.4 0.00 0.00 0.00 83 1014.5
20260903213959 19 243 11.3 27.4 0.00 0.00 0.00 82 1014.4
20260903213458 19 240 14.5 27.4 0.00 0.00 0.00 82 1014.8
20260903212957 19 261 12.9 27.4 0.00 0.00 0.00 82 1014.9
20260903212456 20 278 9.7 24.1 0.00 0.00 0.00 82 1015.0
20260903211957 20 233 9.7 33.8 0.00 0.00 0.00 82 1015.2
20260903211457 20 285 14.5 33.8 0.00 0.00 0.00 81 1015.3
20260903210957 20 268 11.3 25.7 0.00 0.00 0.00 81 1015.2
20260903210457 20 259 9.7 24.1 0.00 0.00 0.00 81 1015.2
20260903205956 20 265 8.0 17.7 0.00 0.00 0.00 80 1015.2
20260903205459 20 244 8.0 14.5 0.00 0.00 0.00 80 1015.3
20260903204956 20 281 4.8 16.1 0.00 0.00 0.00 80 1015.2
20260903204455 20 262 6.4 16.1 0.00 0.00 0.00 80 1015.1
20260903203955 20 261 4.8 14.5 0.00 0.00 0.00 80 1015.2
20260903203455 20 269 6.4 14.5 0.00 0.00 0.00 80 1015.1
20260903202950 20 245 4.8 14.5 0.00 0.00 0.00 80 1015.1
20260903202454 20 281 6.4 11.3 0.00 0.00 0.00 79 1015.1
20260903201952 20 269 6.4 11.3 0.00 0.00 0.00 79 1015.1
20260903201809 20 254 6.4 11.3 0.00 0.00 0.00 79 1015.2
20260903200949 20 243 6.4 14.5 0.00 0.00 0.00 79 1015.2
20260903200452 20 258 6.4 14.5 0.00 0.00 0.00 78 1015.2
20260903195950 20 262 4.8 16.1 0.00 0.00 0.00 78 1015.2
20260903195448 20 245 4.8 16.1 0.00 0.00 0.00 78 1015.2
20260903194947 20 251 3.2 11.3 0.00 0.00 0.00 77 1015.3
20260903194502 20 259 4.8 11.3 0.00 0.00 0.00 77 1015.5
20260903193949 20 272 3.2 9.7 0.00 0.00 0.00 76 1015.4
20260903193447 20 259 4.8 9.7 0.00 0.00 0.00 76 1015.3
20260903192948 20 250 4.8 9.7 0.00 0.00 0.00 75 1015.3
20260903192446 20 285 4.8 11.3 0.00 0.00 0.00 75 1015.4
20260903192319 20 237 4.8 11.3 0.00 0.00 0.00 75 1015.4
20260903191443 21 257 4.8 9.7 0.00 0.00 0.00 74 1015.5
20260903190943 21 271 3.2 8.0 0.00 0.00 0.00 74 1015.6
20260903190444 21 251 3.2 9.7 0.00 0.00 0.00 73 1015.6
20260903185947 21 265 3.2 11.3 0.00 0.00 0.00 73 1015.5
20260903185446 21 298 3.2 14.5 0.00 0.00 0.00 72 1015.5
20260903184944 21 269 3.2 14.5 0.00 0.00 0.00 72 1015.5
20260903184445 21 281 3.2 11.3 0.00 0.00 0.00 71 1015.5
20260903183941 21 241 6.4 19.3 0.00 0.00 0.00 71 1015.5
20260903183446 21 288 3.2 19.3 0.00 0.00 0.00 71 1015.6
20260903182940 21 282 8.0 16.1 0.00 0.00 0.00 71 1015.6
20260903182440 21 247 3.2 14.5 0.00 0.00 0.00 70 1015.7
20260903181938 21 240 8.0 19.3 0.00 0.00 0.00 70 1015.7
20260903181438 21 264 9.7 19.3 0.00 0.00 0.00 70 1015.7
20260903180940 21 279 8.0 19.3 0.00 0.00 0.00 69 1015.6
20260903180438 22 324 11.3 24.1 0.00 0.00 0.00 69 1015.7
20260903175936 22 286 12.9 24.1 0.00 0.00 0.00 68 1015.7
20260903175436 22 257 6.4 22.5 0.00 0.00 0.00 67 1015.7
20260903175259 22 289 14.5 22.5 0.00 0.00 0.00 66 1015.9
20260903174449 22 295 11.3 22.5 0.00 0.00 0.00 65 1015.8
20260903174257 22 244 9.7 22.5 0.00 0.00 0.00 64 1015.6
20260903173741 23 290 14.5 27.4 0.00 0.00 0.00 64 1015.7
20260903172933 23 293 9.7 27.4 0.00 0.00 0.00 64 1015.6
20260903172432 23 240 14.5 22.5 0.00 0.00 0.00 64 1015.6
20260903171933 23 278 11.3 20.9 0.00 0.00 0.00 64 1015.6
20260903171745 23 276 8.0 27.4 0.00 0.00 0.00 63 1015.6
20260903171356 23 241 12.9 24.1 0.00 0.00 0.00 63 1015.4
20260903171352 23 305 9.7 27.4 0.00 0.00 0.00 62 1015.4
20260903165928 23 278 9.7 19.3 0.00 0.00 0.00 63 1015.3
20260903165428 23 271 9.7 30.6 0.00 0.00 0.00 62 1015.3
20260903164925 23 259 16.1 30.6 0.00 0.00 0.00 62 1015.4
20260903164733 24 262 11.3 25.7 0.00 0.00 0.00 62 1015.4
20260903163925 24 276 11.3 25.7 0.00 0.00 0.00 63 1015.5
20260903163421 24 338 11.3 20.9 0.00 0.00 0.00 65 1015.5
20260903162920 24 238 12.9 22.5 0.00 0.00 0.00 65 1015.3
20260903162528 24 259 12.9 27.4 0.00 0.00 0.00 64 1015.4
20260903161726 24 312 9.7 16.1 0.00 0.00 0.00 64 1015.5
20260903160944 24 237 9.7 24.1 0.00 0.00 0.00 64 1015.4
20260903160606 24 274 12.9 24.1 0.00 0.00 0.00 64 1015.6
20260903154909 24 266 14.5 25.7 0.00 0.00 0.00 64 1015.8
20260903154405 24 262 14.5 24.1 0.00 0.00 0.00 65 1015.6
20260903153904 24 250 9.7 19.3 0.00 0.00 0.00 65 1015.9
20260903153404 23 257 9.7 20.9 0.00 0.00 0.00 66 1016.0
20260903153241 23 265 11.3 22.5 0.00 0.00 0.00 65 1016.0
20260903152405 24 289 11.3 22.5 0.00 0.00 0.00 65 1016.1
20260903151904 24 252 12.9 22.5 0.00 0.00 0.00 64 1016.2
20260903151402 25 290 9.7 22.5 0.00 0.00 0.00 64 1016.1
20260903150902 25 305 11.3 29.0 0.00 0.00 0.00 63 1016.1
20260903150402 25 259 14.5 29.0 0.00 0.00 0.00 64 1016.1
20260903145859 24 286 16.1 27.4 0.00 0.00 0.00 65 1016.1
20260903145400 23 266 17.7 29.0 0.00 0.00 0.00 68 1016.0
20260903144857 23 269 14.5 29.0 0.00 0.00 0.00 67 1016.2
20260903144400 23 231 16.1 22.5 0.00 0.00 0.00 68 1016.3
20260903143856 23 271 9.7 16.1 0.00 0.00 0.00 68 1016.2
20260903143358 23 288 9.7 19.3 0.00 0.00 0.00 68 1016.4
20260903142856 23 255 11.3 19.3 0.00 0.00 0.00 67 1016.4
20260903142357 23 279 9.7 22.5 0.00 0.00 0.00 66 1016.4
20260903141855 24 265 11.3 22.5 0.00 0.00 0.00 65 1016.5
20260903141354 24 258 12.9 19.3 0.00 0.00 0.00 65 1016.5
20260903140854 24 262 11.3 20.9 0.00 0.00 0.00 66 1016.6
20260903140356 24 250 9.7 22.5 0.00 0.00 0.00 64 1016.5
20260903135853 25 261 12.9 22.5 0.00 0.00 0.00 64 1016.6
20260903135352 25 259 9.7 25.7 0.00 0.00 0.00 62 1016.6
20260903134848 25 271 9.7 25.7 0.00 0.00 0.00 63 1016.6
20260903134349 25 275 9.7 24.1 0.00 0.00 0.00 65 1016.6
20260903133856 24 269 4.8 27.4 0.00 0.00 0.00 63 1016.9
20260903133655 24 275 17.7 27.4 0.00 0.00 0.00 62 1016.7
20260903132849 23 298 16.1 25.7 0.00 0.00 0.00 63 1016.5
20260903132350 24 231 19.3 32.2 0.00 0.00 0.00 63 1016.8
20260903131851 24 230 9.7 32.2 0.00 0.00 0.00 63 1016.9
20260903131349 25 282 11.3 22.5 0.00 0.00 0.00 66 1016.9
20260903130847 24 295 20.9 29.0 0.00 0.00 0.00 64 1017.0
20260903130649 24 317 16.1 37.0 0.00 0.00 0.00 64 1016.9
20260903125847 24 258 17.7 37.0 0.00 0.00 0.00 65 1016.9
20260903125345 25 261 16.1 19.3 0.00 0.00 0.00 65 1016.9
20260903124842 24 241 11.3 24.1 0.00 0.00 0.00 67 1016.8
20260903124342 23 243 14.5 24.1 0.00 0.00 0.00 67 1017.1
20260903123844 24 230 14.5 22.5 0.00 0.00 0.00 67 1017.2
20260903123344 23 274 11.3 22.5 0.00 0.00 0.00 67 1017.0
20260903123217 23 278 11.3 24.1 0.00 0.00 0.00 67 1017.1
20260903122345 23 240 14.5 24.1 0.00 0.00 0.00 68 1017.0
20260903121850 23 240 11.3 16.1 0.00 0.00 0.00 68 1017.1
20260903121345 22 295 9.7 19.3 0.00 0.00 0.00 69 1017.2
20260903120842 22 285 9.7 19.3 0.00 0.00 0.00 69 1017.2
20260903120350 22 243 9.7 20.9 0.00 0.00 0.00 69 1017.2
20260903115843 22 251 12.9 22.5 0.00 0.00 0.00 68 1017.3
20260903115338 22 264 17.7 24.1 0.00 0.00 0.00 68 1017.2
20260903114837 22 279 14.5 25.7 0.00 0.00 0.00 70 1017.3
20260903114527 21 237 11.3 19.3 0.00 0.00 0.00 72 1017.1
20260903114442 22 264 12.9 25.7 0.00 0.00 0.00 70 1017.2
20260903113338 21 245 9.7 30.6 0.00 0.00 0.00 73 1017.2
20260903112835 21 268 8.0 30.6 0.00 0.00 0.00 73 1017.2
20260903112334 21 275 9.7 22.5 0.00 0.00 0.00 72 1017.2
20260903112152 22 247 14.5 22.5 0.00 0.00 0.00 72 1017.2
20260903111336 22 299 6.4 20.9 0.00 0.00 0.00 72 1017.2
20260903111155 22 295 12.9 20.9 0.00 0.00 0.00 71 1017.2
20260903110341 22 233 14.5 20.9 0.00 0.00 0.00 72 1017.2
20260903105833 22 247 11.3 25.7 0.00 0.00 0.00 72 1017.2
20260903105332 22 245 12.9 30.6 0.00 0.00 0.00 73 1017.2
20260903104832 21 258 17.7 30.6 0.00 0.00 0.00 72 1017.3
20260903104630 21 220 12.9 25.7 0.00 0.00 0.00 74 1017.3
20260903103829 22 319 17.7 25.7 0.00 0.00 0.00 74 1017.3
20260903103333 21 264 12.9 20.9 0.00 0.00 0.00 74 1017.2
20260903102827 21 317 9.7 27.4 0.00 0.00 0.00 74 1017.1
20260903102327 21 248 16.1 27.4 0.00 0.00 0.00 76 1017.2
20260903101830 21 272 11.3 19.3 0.00 0.00 0.00 76 1017.3
20260903101624 21 278 6.4 22.5 0.00 0.00 0.00 78 1017.3
20260903100826 21 230 9.7 22.5 0.00 0.00 0.00 77 1017.3
20260903100324 20 245 8.0 17.7 0.00 0.00 0.00 79 1017.4
20260903095823 20 283 8.0 19.3 0.00 0.00 0.00 79 1017.4
20260903095619 20 312 9.7 22.5 0.00 0.00 0.00 78 1017.4
20260903094822 20 268 9.7 22.5 0.00 0.00 0.00 78 1017.6
20260903094321 21 286 11.3 22.5 0.00 0.00 0.00 78 1017.4
20260903093823 20 279 11.3 22.5 0.00 0.00 0.00 79 1017.3
20260903093323 20 278 12.9 25.7 0.00 0.00 0.00 78 1017.3
20260903092821 20 285 11.3 25.7 0.00 0.00 0.00 78 1017.2
20260903092323 20 303 9.7 24.1 0.00 0.00 0.00 79 1017.2
20260903091824 20 265 14.5 27.4 0.00 0.00 0.00 79 1017.2
20260903091625 20 258 17.7 27.4 0.00 0.00 0.00 79 1017.1
20260903090818 20 248 6.4 19.3 0.00 0.00 0.00 81 1017.2
20260903090321 20 247 9.7 19.3 0.00 0.00 0.00 81 1017.3
20260903085817 20 298 11.3 17.7 0.00 0.00 0.00 82 1017.2
20260903085318 20 299 6.4 17.7 0.00 0.00 0.00 82 1017.2
20260903084816 20 300 9.7 19.3 0.00 0.00 0.00 83 1017.3
20260903084314 19 285 6.4 19.3 0.00 0.00 0.00 84 1017.2
20260903083814 19 0.0 0.0 0.00 0.00 0.00 84 1017.3
20260903083610 19 0.0 0.0 0.00 0.00 0.00 83 1017.2
20260903082813 19 0.0 0.0 0.00 0.00 0.00 84 1017.2
20260903082312 19 0.0 0.0 0.00 0.00 0.00 85 1017.3
20260903081810 19 0.0 0.0 0.00 0.00 0.00 85 1017.1
20260903081310 19 0.0 0.0 0.00 0.00 0.00 85 1017.0
20260903080810 19 0.0 0.0 0.00 0.00 0.00 85 1016.9
20260903080322 19 0.0 0.0 0.00 0.00 0.00 85 1016.8
20260903075807 19 0.0 0.0 0.00 0.00 0.00 86 1016.7
20260903075605 19 0.0 0.0 0.00 0.00 0.00 86 1016.5
20260903074809 18 0.0 0.0 0.00 0.00 0.00 86 1016.5
20260903074307 18 0.0 0.0 0.00 0.00 0.00 86 1016.4
20260903074123 18 0.0 0.0 0.00 0.00 0.00 86 1016.3
20260903073306 18 0.0 0.0 0.00 0.00 0.00 86 1016.2
20260903073128 18 0.0 0.0 0.00 0.00 0.00 86 1016.1
20260903072306 18 0.0 0.0 0.00 0.00 0.00 86 1016.0
20260903071803 18 0.0 0.0 0.00 0.00 0.00 85 1015.9
20260903071305 18 0.0 0.0 0.00 0.00 0.00 85 1015.9
20260903070807 18 0.0 0.0 0.00 0.00 0.00 85 1015.8
20260903070558 18 0.0 0.0 0.00 0.00 0.00 84 1015.8
20260903070147 18 0.0 0.0 0.00 0.00 0.00 84 1015.9
20260903065305 18 0.0 0.0 0.00 0.00 0.00 84 1015.7
20260903064802 18 0.0 0.0 0.00 0.00 0.00 85 1015.6
20260903064602 18 0.0 0.0 0.00 0.00 0.00 85 1015.6
20260903064118 18 0.0 0.0 0.00 0.00 0.00 86 1015.7
20260903063555 18 0.0 0.0 0.00 0.00 0.00 86 1015.7
20260903062758 18 0.0 0.0 0.00 0.00 0.00 86 1015.8
20260903062259 18 0.0 0.0 0.00 0.00 0.00 87 1015.7
20260903061758 18 0.0 0.0 0.00 0.00 0.00 87 1015.9
20260903061257 18 0.0 0.0 0.00 0.00 0.00 88 1015.8
20260903061119 18 0.0 0.0 0.00 0.00 0.00 88 1015.8
20260903060257 18 0.0 0.0 0.00 0.00 0.00 88 1015.9
20260903055755 18 0.0 0.0 0.00 0.00 0.00 89 1015.9
20260903055255 18 0.0 0.0 0.00 0.00 0.00 89 1015.7
20260903054753 18 0.0 0.0 0.00 0.00 0.00 89 1015.7